User: anonymous   Login
Location: *
(47.2969°N, 10.2930°E)
Time: 00:09:34
(UTC+00:00)
Language:

Cosmos 1850 Rocket - Orbit

View from above orbital plane
View from above orbital plane
View from above satellite
View from above satellite

Ground track
Ground track

The orbit data is extracted from the following two-line orbital elements,

1 18096U 87049B   20188.51911186 -.00000036 +00000-0 -31541-5 0  9993
2 18096 074.0417 337.3848 0022512 236.1976 123.7033 14.36543991731871
Epoch (UTC): 06 July 2020 12:27:31
Eccentricity: 0.0022512
inclination: 74.0417°
perigee height: 754 km
apogee height: 786 km
right ascension of ascending node: 337.3848°
argument of perigee: 236.1976°
revolutions per day: 14.36543991
mean anomaly at epoch: 123.7033°
orbit number at epoch: 73187

The dashed part of the orbit path shows where the satellite is in the earth's shadow,  

DLR